Location: Unspecified
(49.2170°N, 0.0000°E)
Time: 09:56:22
(UTC+00:00)

Vanguard 2 Rocket - Pass Details

Date: 29 January 2021
Orbit: 554 x 3326 km, 32.9° (Epoch: 25 February)

Event Time Altitude Azimuth Distance (km) Brightness Sun altitude
Rises 17:17:21 0° 262° (W) 6,232 13.1 -4.6°
Reaches altitude 10° 17:22:54 10° 252° (WSW) 4,718 12.5 -5.5°
Maximum altitude 17:32:00 25° 205° (SSW) 2,740 9.9 -6.9°
Drops below altitude 10° 17:38:05 10° 152° (SSE) 3,043 9.5 -7.8°
Sets 17:40:48 0° 139° (SE) 3,686 9.8 -8.2°
